Total_Precipitation_Accumulation
0.00 0.00 0.00 0.00 0.00 0.00 0.00 0.00 0.00 0.00 0.00 0.00 0.01 0.03 0.06 0.07 0.08 0.10 0.10 0.12 0.15 0.15 0.18 0.22 0.24 0.26 0.33 0.35 0.39 0.38 0.34 0.38 0.38 0.09 0.02 0.04 0.12 0.20 0.19 0.14 0.14 0.13 0.11
0.00 0.00 0.00 0.00 0.00 0.00 0.00 0.00 0.00 0.00 0.00 0.00 0.02 0.05 0.09 0.11 0.11 0.14 0.15 0.15 0.18 0.19 0.21 0.25 0.28 0.31 0.36 0.41 0.48 0.49 0.41 0.36 0.41 0.25 0.06 0.05 0.12 0.23 0.27 0.21 0.18 0.16 0.11
0.00 0.00 0.00 0.00 0.00 0.00 0.00 0.00 0.00 0.00 0.00 0.00 0.02 0.07 0.15 0.21 0.19 0.16 0.20 0.21 0.20 0.22 0.25 0.31 0.35 0.39 0.38 0.41 0.51 0.56 0.50 0.42 0.42 0.38 0.18 0.08 0.11 0.23 0.33 0.31 0.26 0.24 0.18
0.00 0.00 0.00 0.00 0.00 0.00 0.00 0.00 0.00 0.00 0.00 0.01 0.02 0.06 0.17 0.30 0.33 0.34 0.37 0.32 0.26 0.21 0.19 0.24 0.36 0.50 0.55 0.59 0.60 0.59 0.60 0.61 0.56 0.51 0.36 0.21 0.18 0.25 0.41 0.46 0.39 0.34 0.29
0.00 0.00 0.00 0.00 0.00 0.00 0.00 0.00 0.00 0.00 0.00 0.01 0.01 0.03 0.14 0.40 0.65 0.82 0.74 0.47 0.31 0.23 0.18 0.20 0.31 0.52 0.69 0.88 0.95 0.84 0.83 0.89 0.84 0.78 0.66 0.48 0.36 0.39 0.49 0.53 0.59 0.49 0.43
0.00 0.00 0.00 0.00 0.00 0.00 0.00 0.00 0.00 0.00 0.01 0.01 0.01 0.02 0.08 0.36 0.73 0.96 0.70 0.37 0.26 0.22 0.21 0.20 0.28 0.49 0.63 0.73 0.86 0.89 0.96 1.12 1.18 1.11 0.96 0.78 0.54 0.45 0.49 0.61 0.73 0.78 0.66
0.00 0.00 0.00 0.00 0.00 0.00 0.00 0.00 0.00 0.01 0.01 0.01 0.01 0.02 0.03 0.19 0.56 0.83 0.58 0.30 0.22 0.20 0.20 0.19 0.23 0.35 0.47 0.56 0.60 0.62 0.69 0.85 1.10 1.23 1.18 0.88 0.69 0.56 0.66 0.77 0.78 0.86 0.77
0.00 0.00 0.00 0.00 0.00 0.00 0.00 0.00 0.01 0.01 0.01 0.01 0.02 0.02 0.02 0.09 0.43 0.72 0.53 0.26 0.18 0.17 0.19 0.16 0.14 0.22 0.35 0.52 0.61 0.58 0.54 0.63 0.87 1.11 1.29 1.11 0.91 0.87 1.02 1.16 1.16 1.11 0.96
0.00 0.00 0.00 0.00 0.00 0.00 0.00 0.01 0.01 0.02 0.02 0.02 0.02 0.02 0.02 0.04 0.28 0.68 0.55 0.25 0.17 0.15 0.17 0.15 0.12 0.13 0.28 0.48 0.52 0.48 0.42 0.48 0.61 0.84 1.00 1.02 1.00 1.11 1.32 1.62 1.69 1.57 1.31
0.00 0.00 0.00 0.00 0.00 0.00 0.01 0.01 0.02 0.02 0.02 0.02 0.02 0.02 0.02 0.02 0.15 0.56 0.63 0.28 0.17 0.13 0.14 0.14 0.16 0.21 0.31 0.40 0.41 0.44 0.52 0.48 0.45 0.48 0.52 0.55 0.61 0.72 1.04 1.46 1.68 1.67 1.44
0.00 0.00 0.00 0.00 0.00 0.01 0.01 0.02 0.02 0.02 0.02 0.02 0.02 0.02 0.02 0.02 0.06 0.34 0.61 0.40 0.25 0.18 0.19 0.19 0.15 0.22 0.29 0.32 0.38 0.43 0.58 0.54 0.46 0.50 0.50 0.45 0.44 0.53 0.70 1.01 1.40 1.68 1.66
0.00 0.00 0.00 0.00 0.00 0.01 0.01 0.02 0.02 0.03 0.03 0.03 0.04 0.03 0.02 0.02 0.07 0.24 0.39 0.40 0.35 0.23 0.21 0.17 0.13 0.19 0.24 0.32 0.35 0.41 0.46 0.47 0.45 0.43 0.38 0.36 0.39 0.46 0.58 0.76 1.02 1.32 1.49
0.00 0.00 0.00 0.00 0.01 0.01 0.02 0.03 0.03 0.04 0.06 0.07 0.07 0.06 0.03 0.03 0.10 0.24 0.23 0.21 0.27 0.27 0.28 0.27 0.19 0.22 0.24 0.21 0.21 0.28 0.32 0.33 0.40 0.41 0.36 0.31 0.35 0.46 0.52 0.60 0.71 0.93 1.14
0.00 0.00 0.00 0.01 0.01 0.02 0.03 0.04 0.05 0.08 0.17 0.16 0.14 0.11 0.08 0.09 0.23 0.35 0.21 0.13 0.18 0.27 0.30 0.24 0.20 0.20 0.17 0.12 0.11 0.13 0.15 0.21 0.31 0.37 0.33 0.29 0.28 0.34 0.44 0.56 0.67 0.78 0.99
0.00 0.00 0.01 0.01 0.02 0.03 0.04 0.04 0.06 0.09 0.22 0.28 0.22 0.21 0.24 0.31 0.39 0.42 0.33 0.27 0.29 0.35 0.38 0.36 0.28 0.22 0.19 0.15 0.11 0.09 0.09 0.12 0.19 0.24 0.29 0.31 0.31 0.33 0.37 0.46 0.66 0.78 0.92
0.00 0.01 0.01 0.02 0.03 0.03 0.04 0.04 0.05 0.07 0.12 0.13 0.14 0.20 0.21 0.32 0.35 0.30 0.29 0.27 0.30 0.33 0.41 0.41 0.26 0.19 0.18 0.16 0.15 0.12 0.10 0.10 0.12 0.17 0.24 0.29 0.33 0.37 0.39 0.41 0.56 0.75 0.88
0.01 0.01 0.02 0.02 0.03 0.04 0.05 0.07 0.08 0.06 0.06 0.06 0.07 0.11 0.19 0.24 0.24 0.22 0.23 0.22 0.24 0.28 0.32 0.25 0.17 0.15 0.14 0.14 0.14 0.14 0.12 0.09 0.11 0.16 0.20 0.23 0.28 0.34 0.38 0.41 0.48 0.63 0.75
0.01 0.01 0.03 0.03 0.05 0.06 0.08 0.09 0.11 0.12 0.11 0.06 0.04 0.06 0.12 0.17 0.19 0.19 0.20 0.23 0.21 0.17 0.18 0.18 0.17 0.15 0.15 0.16 0.16 0.16 0.14 0.12 0.13 0.14 0.15 0.18 0.23 0.30 0.35 0.38 0.44 0.57 0.68
0.01 0.02 0.03 0.04 0.04 0.06 0.07 0.09 0.11 0.12 0.12 0.10 0.07 0.06 0.09 0.12 0.14 0.14 0.17 0.24 0.22 0.17 0.14 0.15 0.15 0.17 0.18 0.18 0.16 0.16 0.15 0.13 0.11 0.12 0.12 0.13 0.17 0.25 0.30 0.32 0.39 0.48 0.59
0.01 0.03 0.04 0.04 0.05 0.07 0.09 0.12 0.14 0.16 0.16 0.14 0.12 0.12 0.19 0.24 0.23 0.18 0.18 0.20 0.20 0.18 0.15 0.16 0.15 0.17 0.18 0.18 0.17 0.16 0.15 0.13 0.11 0.11 0.11 0.11 0.13 0.20 0.25 0.29 0.36 0.43 0.50
0.01 0.02 0.05 0.06 0.08 0.10 0.14 0.17 0.19 0.22 0.21 0.18 0.14 0.14 0.31 0.40 0.31 0.20 0.18 0.19 0.20 0.21 0.20 0.19 0.18 0.17 0.17 0.18 0.18 0.17 0.16 0.13 0.11 0.11 0.11 0.11 0.12 0.16 0.18 0.24 0.31 0.38 0.45
0.02 0.03 0.05 0.08 0.11 0.13 0.16 0.18 0.21 0.24 0.23 0.21 0.16 0.13 0.19 0.24 0.22 0.21 0.19 0.17 0.17 0.19 0.21 0.24 0.23 0.20 0.21 0.24 0.24 0.23 0.19 0.14 0.11 0.12 0.13 0.12 0.13 0.14 0.16 0.20 0.25 0.32 0.40
0.04 0.07 0.09 0.11 0.13 0.16 0.18 0.18 0.21 0.23 0.23 0.20 0.20 0.18 0.18 0.20 0.20 0.21 0.21 0.18 0.17 0.17 0.18 0.22 0.24 0.20 0.19 0.21 0.22 0.25 0.24 0.16 0.12 0.15 0.18 0.16 0.13 0.12 0.14 0.17 0.21 0.28 0.36
0.08 0.11 0.14 0.15 0.17 0.20 0.22 0.23 0.22 0.22 0.23 0.22 0.21 0.20 0.19 0.20 0.19 0.18 0.17 0.17 0.18 0.17 0.18 0.21 0.22 0.21 0.20 0.20 0.19 0.18 0.17 0.16 0.20 0.22 0.22 0.22 0.18 0.14 0.16 0.18 0.19 0.24 0.31
0.11 0.14 0.17 0.20 0.24 0.26 0.26 0.25 0.23 0.22 0.22 0.22 0.21 0.20 0.19 0.19 0.17 0.15 0.14 0.15 0.17 0.16 0.15 0.18 0.20 0.21 0.20 0.19 0.18 0.16 0.15 0.18 0.26 0.34 0.36 0.31 0.23 0.17 0.17 0.19 0.19 0.22 0.27
0.12 0.15 0.19 0.22 0.26 0.28 0.29 0.29 0.26 0.24 0.25 0.23 0.22 0.21 0.21 0.20 0.18 0.16 0.15 0.17 0.19 0.17 0.16 0.16 0.18 0.20 0.20 0.20 0.18 0.16 0.17 0.22 0.25 0.28 0.36 0.39 0.29 0.19 0.18 0.21 0.20 0.22 0.27